iso_date,epoch_date,Year,Hour,Min,DOY,POS_DOY,Lat,Lon,BP,Ts,Ta,has_bp,has_ts,has_ta,BuoyID,Buoy_Type,Buoy_Owner,Logistics,Hemisphere
2015-04-14T12:11:31Z,1429013491,2015,12,11,104.508,104.508,88.9654,-89.7178,1003.5,-14.2,-999.0,yes,yes,no,300234062554760,SVP-B,USIABP,NPEO,North
2015-04-14T13:00:28Z,1429016429,2015,13,0,104.542,104.542,88.965,-89.754,1003.5,-14.5,-999.0,yes,yes,no,300234062554760,SVP-B,USIABP,NPEO,North
2015-04-14T13:59:31Z,1429019971,2015,14,0,104.583,104.583,88.9644,-89.8046,1003.2,-14.5,-999.0,yes,yes,no,300234062554760,SVP-B,USIABP,NPEO,North
2015-04-14T15:00:00Z,1429023600,2015,15,0,104.625,104.625,88.9638,-89.8536,1002.8,-15.5,-999.0,yes,yes,no,300234062554760,SVP-B,USIABP,NPEO,North
2015-04-14T16:00:28Z,1429027229,2015,16,0,104.667,104.667,88.9632,-89.9142,1002.2,-15.4,-999.0,yes,yes,no,300234062554760,SVP-B,USIABP,NPEO,North
2015-04-14T16:59:31Z,1429030771,2015,17,0,104.708,104.708,88.9622,-89.9816,1001.6,-15.3,-999.0,yes,yes,no,300234062554760,SVP-B,USIABP,NPEO,North
2015-04-14T18:00:00Z,1429034400,2015,18,0,104.75,104.75,88.9612,-90.0544,1001.1,-15.2,-999.0,yes,yes,no,300234062554760,SVP-B,USIABP,NPEO,North
2015-04-14T19:00:28Z,1429038029,2015,19,0,104.792,104.792,88.9604,-90.1344,1000.7,-15.2,-999.0,yes,yes,no,300234062554760,SVP-B,USIABP,NPEO,North
2015-04-14T19:59:31Z,1429041571,2015,20,0,104.833,104.833,88.9594,-90.219,1000.1,-14.9,-999.0,yes,yes,no,300234062554760,SVP-B,USIABP,NPEO,North
2015-04-14T21:00:00Z,1429045200,2015,21,0,104.875,104.875,88.9584,-90.3142,999.8,-14.6,-999.0,yes,yes,no,300234062554760,SVP-B,USIABP,NPEO,North
2015-04-14T22:00:28Z,1429048829,2015,22,0,104.917,104.917,88.9574,-90.4106,999.3,-14.2,-999.0,yes,yes,no,300234062554760,SVP-B,USIABP,NPEO,North
2015-04-14T22:59:31Z,1429052371,2015,23,0,104.958,104.958,88.9562,-90.5136,998.7,-13.7,-999.0,yes,yes,no,300234062554760,SVP-B,USIABP,NPEO,North
2015-04-15T00:00:00Z,1429056000,2015,0,0,105.0,105.0,88.955,-90.622,997.9,-13.3,-999.0,yes,yes,no,300234062554760,SVP-B,USIABP,NPEO,North
2015-04-15T01:00:28Z,1429059629,2015,1,0,105.042,105.042,88.9542,-90.7314,997.3,-12.7,-999.0,yes,yes,no,300234062554760,SVP-B,USIABP,NPEO,North
2015-04-15T01:59:31Z,1429063171,2015,2,0,105.083,105.083,88.9534,-90.831,996.7,-11.6,-999.0,yes,yes,no,300234062554760,SVP-B,USIABP,NPEO,North
2015-04-15T03:00:00Z,1429066800,2015,3,0,105.125,105.125,88.9524,-90.9554,996.2,-10.5,-999.0,yes,yes,no,300234062554760,SVP-B,USIABP,NPEO,North
2015-04-15T04:00:28Z,1429070429,2015,4,0,105.167,105.167,88.9516,-91.0992,995.8,-9.5,-999.0,yes,yes,no,300234062554760,SVP-B,USIABP,NPEO,North
2015-04-15T04:59:31Z,1429073971,2015,5,0,105.208,105.208,88.9508,-91.2488,995.7,-8.8,-999.0,yes,yes,no,300234062554760,SVP-B,USIABP,NPEO,North
2015-04-15T06:00:00Z,1429077600,2015,6,0,105.25,105.25,88.9504,-91.3966,996.0,-8.4,-999.0,yes,yes,no,300234062554760,SVP-B,USIABP,NPEO,North
2015-04-15T07:00:28Z,1429081229,2015,7,0,105.292,105.292,88.95,-91.5422,996.5,-7.8,-999.0,yes,yes,no,300234062554760,SVP-B,USIABP,NPEO,North
2015-04-15T07:59:31Z,1429084771,2015,8,0,105.333,105.333,88.9498,-91.677,997.1,-7.1,-999.0,yes,yes,no,300234062554760,SVP-B,USIABP,NPEO,North
2015-04-15T09:00:00Z,1429088400,2015,9,0,105.375,105.375,88.95,-91.8066,997.5,-6.9,-999.0,yes,yes,no,300234062554760,SVP-B,USIABP,NPEO,North
2015-04-15T10:00:28Z,1429092029,2015,10,0,105.417,105.417,88.9502,-91.9302,998.0,-6.7,-999.0,yes,yes,no,300234062554760,SVP-B,USIABP,NPEO,North
2015-04-15T10:59:31Z,1429095571,2015,11,0,105.458,105.458,88.9504,-92.0502,998.8,-6.6,-999.0,yes,yes,no,300234062554760,SVP-B,USIABP,NPEO,North
2015-04-15T12:00:00Z,1429099200,2015,12,0,105.5,105.5,88.9506,-92.1674,999.9,-7.0,-999.0,yes,yes,no,300234062554760,SVP-B,USIABP,NPEO,North
2015-04-15T13:00:28Z,1429102829,2015,13,0,105.542,105.542,88.9508,-92.284,1000.8,-7.8,-999.0,yes,yes,no,300234062554760,SVP-B,USIABP,NPEO,North
2015-04-15T13:59:31Z,1429106371,2015,14,0,105.583,105.583,88.951,-92.3956,1001.3,-8.6,-999.0,yes,yes,no,300234062554760,SVP-B,USIABP,NPEO,North
2015-04-15T15:00:00Z,1429110000,2015,15,0,105.625,105.625,88.9508,-92.5144,1001.1,-8.2,-999.0,yes,yes,no,300234062554760,SVP-B,USIABP,NPEO,North
2015-04-15T16:00:28Z,1429113629,2015,16,0,105.667,105.667,88.9504,-92.6372,1000.8,-8.3,-999.0,yes,yes,no,300234062554760,SVP-B,USIABP,NPEO,North
2015-04-15T16:59:31Z,1429117171,2015,17,0,105.708,105.708,88.9496,-92.782,1000.2,-8.3,-999.0,yes,yes,no,300234062554760,SVP-B,USIABP,NPEO,North
2015-04-15T18:00:00Z,1429120800,2015,18,0,105.75,105.75,88.9486,-92.9528,999.7,-7.9,-999.0,yes,yes,no,300234062554760,SVP-B,USIABP,NPEO,North
2015-04-15T19:00:28Z,1429124429,2015,19,0,105.792,105.792,88.9474,-93.1462,999.4,-7.0,-999.0,yes,yes,no,300234062554760,SVP-B,USIABP,NPEO,North
2015-04-15T19:59:31Z,1429127971,2015,20,0,105.833,105.833,88.9464,-93.35,999.4,-6.2,-999.0,yes,yes,no,300234062554760,SVP-B,USIABP,NPEO,North
2015-04-15T21:00:00Z,1429131600,2015,21,0,105.875,105.875,88.9458,-93.5804,999.6,-5.4,-999.0,yes,yes,no,300234062554760,SVP-B,USIABP,NPEO,North
2015-04-15T22:00:28Z,1429135229,2015,22,0,105.917,105.917,88.945,-93.8206,999.9,-4.8,-999.0,yes,yes,no,300234062554760,SVP-B,USIABP,NPEO,North
2015-04-15T22:59:31Z,1429138771,2015,23,0,105.958,105.958,88.9442,-94.0688,1000.1,-4.4,-999.0,yes,yes,no,300234062554760,SVP-B,USIABP,NPEO,North
2015-04-16T00:00:00Z,1429142400,2015,0,0,106.0,106.0,88.9432,-94.3098,999.9,-4.2,-999.0,yes,yes,no,300234062554760,SVP-B,USIABP,NPEO,North
2015-04-16T01:00:28Z,1429146029,2015,1,0,106.042,106.042,88.9418,-94.5484,999.9,-3.7,-999.0,yes,yes,no,300234062554760,SVP-B,USIABP,NPEO,North
2015-04-16T01:59:31Z,1429149571,2015,2,0,106.083,106.083,88.9404,-94.7782,1000.0,-3.7,-999.0,yes,yes,no,300234062554760,SVP-B,USIABP,NPEO,North
2015-04-16T03:00:00Z,1429153200,2015,3,0,106.125,106.125,88.9386,-95.001,999.9,-4.4,-999.0,yes,yes,no,300234062554760,SVP-B,USIABP,NPEO,North
2015-04-16T04:00:28Z,1429156829,2015,4,0,106.167,106.167,88.9368,-95.2356,999.7,-5.1,-999.0,yes,yes,no,300234062554760,SVP-B,USIABP,NPEO,North
2015-04-16T04:59:31Z,1429160371,2015,5,0,106.208,106.208,88.9344,-95.4798,999.4,-5.2,-999.0,yes,yes,no,300234062554760,SVP-B,USIABP,NPEO,North
2015-04-16T06:00:00Z,1429164000,2015,6,0,106.25,106.25,88.9318,-95.7246,999.3,-5.9,-999.0,yes,yes,no,300234062554760,SVP-B,USIABP,NPEO,North
2015-04-16T07:00:28Z,1429167629,2015,7,0,106.292,106.292,88.9292,-95.9678,999.3,-6.3,-999.0,yes,yes,no,300234062554760,SVP-B,USIABP,NPEO,North
2015-04-16T07:59:31Z,1429171171,2015,8,0,106.333,106.333,88.9264,-96.2072,999.1,-5.5,-999.0,yes,yes,no,300234062554760,SVP-B,USIABP,NPEO,North
2015-04-16T09:00:00Z,1429174800,2015,9,0,106.375,106.375,88.9238,-96.4434,999.0,-4.7,-999.0,yes,yes,no,300234062554760,SVP-B,USIABP,NPEO,North
2015-04-16T10:00:28Z,1429178429,2015,10,0,106.417,106.417,88.9212,-96.6766,998.9,-4.1,-999.0,yes,yes,no,300234062554760,SVP-B,USIABP,NPEO,North
2015-04-16T10:59:31Z,1429181971,2015,11,0,106.458,106.458,88.9188,-96.9048,998.9,-4.3,-999.0,yes,yes,no,300234062554760,SVP-B,USIABP,NPEO,North
2015-04-16T12:00:00Z,1429185600,2015,12,0,106.5,106.5,88.9164,-97.1228,998.6,-4.7,-999.0,yes,yes,no,300234062554760,SVP-B,USIABP,NPEO,North
2015-04-16T13:00:28Z,1429189229,2015,13,0,106.542,106.542,88.9142,-97.334,998.4,-4.9,-999.0,yes,yes,no,300234062554760,SVP-B,USIABP,NPEO,North
2015-04-16T13:59:31Z,1429192771,2015,14,0,106.583,106.583,88.912,-97.534,998.4,-4.8,-999.0,yes,yes,no,300234062554760,SVP-B,USIABP,NPEO,North
2015-04-16T15:00:00Z,1429196400,2015,15,0,106.625,106.625,88.91,-97.7268,998.1,-4.9,-999.0,yes,yes,no,300234062554760,SVP-B,USIABP,NPEO,North
2015-04-16T16:00:28Z,1429200029,2015,16,0,106.667,106.667,88.9076,-97.9142,997.9,-5.0,-999.0,yes,yes,no,300234062554760,SVP-B,USIABP,NPEO,North
2015-04-16T16:59:31Z,1429203571,2015,17,0,106.708,106.708,88.9054,-98.0918,997.5,-4.8,-999.0,yes,yes,no,300234062554760,SVP-B,USIABP,NPEO,North
2015-04-16T18:00:00Z,1429207200,2015,18,0,106.75,106.75,88.903,-98.2644,997.2,-4.7,-999.0,yes,yes,no,300234062554760,SVP-B,USIABP,NPEO,North
2015-04-16T19:00:28Z,1429210829,2015,19,0,106.792,106.792,88.9006,-98.4336,996.6,-4.4,-999.0,yes,yes,no,300234062554760,SVP-B,USIABP,NPEO,North
2015-04-16T19:59:31Z,1429214371,2015,20,0,106.833,106.833,88.8982,-98.6006,996.4,-4.3,-999.0,yes,yes,no,300234062554760,SVP-B,USIABP,NPEO,North
2015-04-16T21:00:00Z,1429218000,2015,21,0,106.875,106.875,88.896,-98.7592,996.3,-4.1,-999.0,yes,yes,no,300234062554760,SVP-B,USIABP,NPEO,North
2015-04-16T22:00:28Z,1429221629,2015,22,0,106.917,106.917,88.8936,-98.91,996.2,-4.0,-999.0,yes,yes,no,300234062554760,SVP-B,USIABP,NPEO,North
2015-04-16T22:59:31Z,1429225171,2015,23,0,106.958,106.958,88.8914,-99.0564,995.9,-3.9,-999.0,yes,yes,no,300234062554760,SVP-B,USIABP,NPEO,North
2015-04-17T00:00:00Z,1429228800,2015,0,0,107.0,107.0,88.889,-99.2026,995.3,-4.0,-999.0,yes,yes,no,300234062554760,SVP-B,USIABP,NPEO,North
2015-04-17T01:00:28Z,1429232429,2015,1,0,107.042,107.042,88.8866,-99.338,994.8,-4.0,-999.0,yes,yes,no,300234062554760,SVP-B,USIABP,NPEO,North
2015-04-17T01:59:31Z,1429235971,2015,2,0,107.083,107.083,88.8842,-99.4696,994.0,-3.9,-999.0,yes,yes,no,300234062554760,SVP-B,USIABP,NPEO,North
2015-04-17T03:00:00Z,1429239600,2015,3,0,107.125,107.125,88.8818,-99.6014,993.3,-3.8,-999.0,yes,yes,no,300234062554760,SVP-B,USIABP,NPEO,North
2015-04-17T04:00:28Z,1429243229,2015,4,0,107.167,107.167,88.879,-99.7296,992.6,-3.6,-999.0,yes,yes,no,300234062554760,SVP-B,USIABP,NPEO,North
2015-04-17T04:59:31Z,1429246771,2015,5,0,107.208,107.208,88.876,-99.8528,992.1,-3.4,-999.0,yes,yes,no,300234062554760,SVP-B,USIABP,NPEO,North
2015-04-17T06:00:00Z,1429250400,2015,6,0,107.25,107.25,88.8728,-99.9832,991.9,-3.1,-999.0,yes,yes,no,300234062554760,SVP-B,USIABP,NPEO,North
2015-04-17T07:00:28Z,1429254029,2015,7,0,107.292,107.292,88.8696,-100.1144,991.7,-3.0,-999.0,yes,yes,no,300234062554760,SVP-B,USIABP,NPEO,North
2015-04-17T07:59:31Z,1429257571,2015,8,0,107.333,107.333,88.8662,-100.2512,991.3,-2.8,-999.0,yes,yes,no,300234062554760,SVP-B,USIABP,NPEO,North
2015-04-17T09:00:00Z,1429261200,2015,9,0,107.375,107.375,88.8626,-100.3912,991.0,-2.7,-999.0,yes,yes,no,300234062554760,SVP-B,USIABP,NPEO,North
2015-04-17T10:00:28Z,1429264829,2015,10,0,107.417,107.417,88.8588,-100.5336,990.6,-2.8,-999.0,yes,yes,no,300234062554760,SVP-B,USIABP,NPEO,North
2015-04-17T10:59:31Z,1429268371,2015,11,0,107.458,107.458,88.8548,-100.6806,990.1,-2.9,-999.0,yes,yes,no,300234062554760,SVP-B,USIABP,NPEO,North
2015-04-17T12:00:00Z,1429272000,2015,12,0,107.5,107.5,88.8506,-100.8068,989.5,-3.0,-999.0,yes,yes,no,300234062554760,SVP-B,USIABP,NPEO,North
2015-04-17T13:00:28Z,1429275629,2015,13,0,107.542,107.542,88.8462,-100.925,988.7,-3.1,-999.0,yes,yes,no,300234062554760,SVP-B,USIABP,NPEO,North
2015-04-17T13:59:31Z,1429279171,2015,14,0,107.583,107.583,88.8416,-101.0352,988.3,-3.0,-999.0,yes,yes,no,300234062554760,SVP-B,USIABP,NPEO,North
2015-04-17T15:00:00Z,1429282800,2015,15,0,107.625,107.625,88.8364,-101.1442,987.7,-2.9,-999.0,yes,yes,no,300234062554760,SVP-B,USIABP,NPEO,North
2015-04-17T16:00:28Z,1429286429,2015,16,0,107.667,107.667,88.8308,-101.247,987.2,-3.0,-999.0,yes,yes,no,300234062554760,SVP-B,USIABP,NPEO,North
2015-04-17T16:59:31Z,1429289971,2015,17,0,107.708,107.708,88.8254,-101.327,986.4,-3.0,-999.0,yes,yes,no,300234062554760,SVP-B,USIABP,NPEO,North
2015-04-17T18:00:00Z,1429293600,2015,18,0,107.75,107.75,88.8198,-101.387,985.8,-3.2,-999.0,yes,yes,no,300234062554760,SVP-B,USIABP,NPEO,North
2015-04-17T19:00:28Z,1429297229,2015,19,0,107.792,107.792,88.8142,-101.4226,985.2,-3.3,-999.0,yes,yes,no,300234062554760,SVP-B,USIABP,NPEO,North
2015-04-17T19:59:31Z,1429300771,2015,20,0,107.833,107.833,88.8084,-101.4364,984.7,-3.6,-999.0,yes,yes,no,300234062554760,SVP-B,USIABP,NPEO,North
2015-04-17T21:00:00Z,1429304400,2015,21,0,107.875,107.875,88.8026,-101.4304,984.3,-3.7,-999.0,yes,yes,no,300234062554760,SVP-B,USIABP,NPEO,North
2015-04-17T22:00:28Z,1429308029,2015,22,0,107.917,107.917,88.7972,-101.408,983.8,-4.0,-999.0,yes,yes,no,300234062554760,SVP-B,USIABP,NPEO,North
2015-04-17T22:59:31Z,1429311571,2015,23,0,107.958,107.958,88.7922,-101.3788,983.1,-4.2,-999.0,yes,yes,no,300234062554760,SVP-B,USIABP,NPEO,North
2015-04-18T00:00:00Z,1429315200,2015,0,0,108.0,108.0,88.7876,-101.3344,982.5,-4.5,-999.0,yes,yes,no,300234062554760,SVP-B,USIABP,NPEO,North
2015-04-18T01:00:28Z,1429318829,2015,1,0,108.042,108.042,88.7834,-101.2652,982.0,-4.7,-999.0,yes,yes,no,300234062554760,SVP-B,USIABP,NPEO,North
2015-04-18T01:59:31Z,1429322371,2015,2,0,108.083,108.083,88.7794,-101.1882,981.6,-5.0,-999.0,yes,yes,no,300234062554760,SVP-B,USIABP,NPEO,North
2015-04-18T03:00:00Z,1429326000,2015,3,0,108.125,108.125,88.7758,-101.0988,981.3,-5.1,-999.0,yes,yes,no,300234062554760,SVP-B,USIABP,NPEO,North
2015-04-18T04:00:28Z,1429329629,2015,4,0,108.167,108.167,88.7722,-100.989,980.9,-5.1,-999.0,yes,yes,no,300234062554760,SVP-B,USIABP,NPEO,North
2015-04-18T04:59:31Z,1429333171,2015,5,0,108.208,108.208,88.7692,-100.8794,980.5,-5.1,-999.0,yes,yes,no,300234062554760,SVP-B,USIABP,NPEO,North
2015-04-18T06:00:00Z,1429336800,2015,6,0,108.25,108.25,88.766,-100.7738,980.4,-5.3,-999.0,yes,yes,no,300234062554760,SVP-B,USIABP,NPEO,North
2015-04-18T07:00:28Z,1429340429,2015,7,0,108.292,108.292,88.763,-100.6738,980.5,-5.3,-999.0,yes,yes,no,300234062554760,SVP-B,USIABP,NPEO,North
2015-04-18T07:59:31Z,1429343971,2015,8,0,108.333,108.333,88.7602,-100.5708,981.4,-6.2,-999.0,yes,yes,no,300234062554760,SVP-B,USIABP,NPEO,North
2015-04-18T09:00:00Z,1429347600,2015,9,0,108.375,108.375,88.7574,-100.4692,982.2,-7.6,-999.0,yes,yes,no,300234062554760,SVP-B,USIABP,NPEO,North
2015-04-18T10:00:28Z,1429351229,2015,10,0,108.417,108.417,88.755,-100.3666,982.7,-8.8,-999.0,yes,yes,no,300234062554760,SVP-B,USIABP,NPEO,North
2015-04-18T10:59:31Z,1429354771,2015,11,0,108.458,108.458,88.7526,-100.2626,983.2,-9.8,-999.0,yes,yes,no,300234062554760,SVP-B,USIABP,NPEO,North
2015-04-18T12:00:00Z,1429358400,2015,12,0,108.5,108.5,88.7506,-100.1448,983.6,-10.3,-999.0,yes,yes,no,300234062554760,SVP-B,USIABP,NPEO,North
2015-04-18T13:00:28Z,1429362029,2015,13,0,108.542,108.542,88.7486,-100.0106,983.8,-11.0,-999.0,yes,yes,no,300234062554760,SVP-B,USIABP,NPEO,North
2015-04-18T13:59:31Z,1429365571,2015,14,0,108.583,108.583,88.7466,-99.8608,983.9,-11.7,-999.0,yes,yes,no,300234062554760,SVP-B,USIABP,NPEO,North
2015-04-18T15:00:00Z,1429369200,2015,15,0,108.625,108.625,88.7444,-99.7004,984.1,-12.2,-999.0,yes,yes,no,300234062554760,SVP-B,USIABP,NPEO,North
2015-04-18T16:00:28Z,1429372829,2015,16,0,108.667,108.667,88.7422,-99.5312,984.3,-12.6,-999.0,yes,yes,no,300234062554760,SVP-B,USIABP,NPEO,North
2015-04-18T16:59:31Z,1429376371,2015,17,0,108.708,108.708,88.74,-99.3616,984.2,-12.6,-999.0,yes,yes,no,300234062554760,SVP-B,USIABP,NPEO,North
2015-04-18T18:00:00Z,1429380000,2015,18,0,108.75,108.75,88.738,-99.1932,984.2,-12.9,-999.0,yes,yes,no,300234062554760,SVP-B,USIABP,NPEO,North
2015-04-18T19:00:28Z,1429383629,2015,19,0,108.792,108.792,88.7358,-99.024,984.2,-13.0,-999.0,yes,yes,no,300234062554760,SVP-B,USIABP,NPEO,North
2015-04-18T19:59:31Z,1429387171,2015,20,0,108.833,108.833,88.7338,-98.8514,984.5,-13.2,-999.0,yes,yes,no,300234062554760,SVP-B,USIABP,NPEO,North
2015-04-18T21:00:00Z,1429390800,2015,21,0,108.875,108.875,88.7322,-98.679,984.8,-13.0,-999.0,yes,yes,no,300234062554760,SVP-B,USIABP,NPEO,North
2015-04-18T22:00:28Z,1429394429,2015,22,0,108.917,108.917,88.7302,-98.5206,985.2,-13.3,-999.0,yes,yes,no,300234062554760,SVP-B,USIABP,NPEO,North
2015-04-18T22:59:31Z,1429397971,2015,23,0,108.958,108.958,88.728,-98.3686,985.8,-13.0,-999.0,yes,yes,no,300234062554760,SVP-B,USIABP,NPEO,North
2015-04-19T00:00:00Z,1429401600,2015,0,0,109.0,109.0,88.7252,-98.2226,986.5,-13.4,-999.0,yes,yes,no,300234062554760,SVP-B,USIABP,NPEO,North
2015-04-19T01:00:28Z,1429405229,2015,1,0,109.042,109.042,88.7222,-98.0778,987.4,-14.0,-999.0,yes,yes,no,300234062554760,SVP-B,USIABP,NPEO,North
2015-04-19T01:59:31Z,1429408771,2015,2,0,109.083,109.083,88.7186,-97.9334,988.1,-14.7,-999.0,yes,yes,no,300234062554760,SVP-B,USIABP,NPEO,North
2015-04-19T03:00:00Z,1429412400,2015,3,0,109.125,109.125,88.7144,-97.783,989.0,-15.3,-999.0,yes,yes,no,300234062554760,SVP-B,USIABP,NPEO,North
2015-04-19T04:00:28Z,1429416029,2015,4,0,109.167,109.167,88.71,-97.6292,989.8,-15.8,-999.0,yes,yes,no,300234062554760,SVP-B,USIABP,NPEO,North
2015-04-19T04:59:31Z,1429419571,2015,5,0,109.208,109.208,88.705,-97.4594,990.4,-16.2,-999.0,yes,yes,no,300234062554760,SVP-B,USIABP,NPEO,North
2015-04-19T06:00:00Z,1429423200,2015,6,0,109.25,109.25,88.7002,-97.2774,991.0,-16.5,-999.0,yes,yes,no,300234062554760,SVP-B,USIABP,NPEO,North
2015-04-19T07:00:28Z,1429426829,2015,7,0,109.292,109.292,88.6958,-97.0862,991.9,-17.1,-999.0,yes,yes,no,300234062554760,SVP-B,USIABP,NPEO,North
2015-04-19T07:59:31Z,1429430371,2015,8,0,109.333,109.333,88.6922,-96.8714,992.7,-17.5,-999.0,yes,yes,no,300234062554760,SVP-B,USIABP,NPEO,North
2015-04-19T09:00:00Z,1429434000,2015,9,0,109.375,109.375,88.6892,-96.6326,993.3,-17.5,-999.0,yes,yes,no,300234062554760,SVP-B,USIABP,NPEO,North
2015-04-19T10:00:28Z,1429437629,2015,10,0,109.417,109.417,88.686,-96.3856,994.2,-17.5,-999.0,yes,yes,no,300234062554760,SVP-B,USIABP,NPEO,North
2015-04-19T10:59:31Z,1429441171,2015,11,0,109.458,109.458,88.6822,-96.1532,994.7,-17.3,-999.0,yes,yes,no,300234062554760,SVP-B,USIABP,NPEO,North
2015-04-19T12:00:00Z,1429444800,2015,12,0,109.5,109.5,88.6786,-95.9278,995.5,-17.2,-999.0,yes,yes,no,300234062554760,SVP-B,USIABP,NPEO,North
2015-04-19T13:00:28Z,1429448429,2015,13,0,109.542,109.542,88.6756,-95.6912,996.1,-17.3,-999.0,yes,yes,no,300234062554760,SVP-B,USIABP,NPEO,North
2015-04-19T13:59:31Z,1429451971,2015,14,0,109.583,109.583,88.6726,-95.4398,996.5,-17.3,-999.0,yes,yes,no,300234062554760,SVP-B,USIABP,NPEO,North
2015-04-19T15:00:00Z,1429455600,2015,15,0,109.625,109.625,88.6696,-95.1784,996.8,-17.5,-999.0,yes,yes,no,300234062554760,SVP-B,USIABP,NPEO,North
2015-04-19T16:00:28Z,1429459229,2015,16,0,109.667,109.667,88.6668,-94.9086,996.9,-17.3,-999.0,yes,yes,no,300234062554760,SVP-B,USIABP,NPEO,North
2015-04-19T16:59:31Z,1429462771,2015,17,0,109.708,109.708,88.6638,-94.6426,996.8,-16.9,-999.0,yes,yes,no,300234062554760,SVP-B,USIABP,NPEO,North
2015-04-19T18:00:00Z,1429466400,2015,18,0,109.75,109.75,88.6608,-94.3806,996.8,-16.7,-999.0,yes,yes,no,300234062554760,SVP-B,USIABP,NPEO,North
2015-04-19T19:00:28Z,1429470029,2015,19,0,109.792,109.792,88.6582,-94.1128,996.5,-16.4,-999.0,yes,yes,no,300234062554760,SVP-B,USIABP,NPEO,North
2015-04-19T19:59:31Z,1429473571,2015,20,0,109.833,109.833,88.656,-93.8386,996.4,-16.3,-999.0,yes,yes,no,300234062554760,SVP-B,USIABP,NPEO,North
2015-04-19T21:00:00Z,1429477200,2015,21,0,109.875,109.875,88.6534,-93.5678,996.3,-16.3,-999.0,yes,yes,no,300234062554760,SVP-B,USIABP,NPEO,North
2015-04-19T22:00:28Z,1429480829,2015,22,0,109.917,109.917,88.6508,-93.3086,996.2,-15.9,-999.0,yes,yes,no,300234062554760,SVP-B,USIABP,NPEO,North
2015-04-19T22:59:31Z,1429484371,2015,23,0,109.958,109.958,88.6478,-93.0546,996.4,-15.4,-999.0,yes,yes,no,300234062554760,SVP-B,USIABP,NPEO,North
2015-04-20T00:00:00Z,1429488000,2015,0,0,110.0,110.0,88.6444,-92.8008,996.4,-14.8,-999.0,yes,yes,no,300234062554760,SVP-B,USIABP,NPEO,North
2015-04-20T01:00:28Z,1429491629,2015,1,0,110.042,110.042,88.6408,-92.5484,996.7,-14.1,-999.0,yes,yes,no,300234062554760,SVP-B,USIABP,NPEO,North
2015-04-20T01:59:31Z,1429495171,2015,2,0,110.083,110.083,88.6374,-92.3042,997.1,-13.8,-999.0,yes,yes,no,300234062554760,SVP-B,USIABP,NPEO,North
2015-04-20T03:00:00Z,1429498800,2015,3,0,110.125,110.125,88.6342,-92.054,997.4,-13.9,-999.0,yes,yes,no,300234062554760,SVP-B,USIABP,NPEO,North
2015-04-20T04:00:28Z,1429502429,2015,4,0,110.167,110.167,88.631,-91.8084,997.6,-14.0,-999.0,yes,yes,no,300234062554760,SVP-B,USIABP,NPEO,North
2015-04-20T04:59:31Z,1429505971,2015,5,0,110.208,110.208,88.6278,-91.565,998.0,-14.3,-999.0,yes,yes,no,300234062554760,SVP-B,USIABP,NPEO,North
2015-04-20T06:00:00Z,1429509600,2015,6,0,110.25,110.25,88.625,-91.313,998.2,-14.7,-999.0,yes,yes,no,300234062554760,SVP-B,USIABP,NPEO,North
2015-04-20T07:00:28Z,1429513229,2015,7,0,110.292,110.292,88.6224,-91.05,998.4,-15.0,-999.0,yes,yes,no,300234062554760,SVP-B,USIABP,NPEO,North
2015-04-20T07:59:31Z,1429516771,2015,8,0,110.333,110.333,88.6202,-90.7856,998.5,-15.4,-999.0,yes,yes,no,300234062554760,SVP-B,USIABP,NPEO,North
2015-04-20T09:00:00Z,1429520400,2015,9,0,110.375,110.375,88.6186,-90.5204,998.7,-15.5,-999.0,yes,yes,no,300234062554760,SVP-B,USIABP,NPEO,North
2015-04-20T10:00:28Z,1429524029,2015,10,0,110.417,110.417,88.6174,-90.258,998.6,-15.7,-999.0,yes,yes,no,300234062554760,SVP-B,USIABP,NPEO,North
2015-04-20T10:59:31Z,1429527571,2015,11,0,110.458,110.458,88.6168,-89.9928,998.5,-15.8,-999.0,yes,yes,no,300234062554760,SVP-B,USIABP,NPEO,North
2015-04-20T12:00:00Z,1429531200,2015,12,0,110.5,110.5,88.6164,-89.7272,998.4,-16.0,-999.0,yes,yes,no,300234062554760,SVP-B,USIABP,NPEO,North
2015-04-20T13:00:28Z,1429534829,2015,13,0,110.542,110.542,88.6158,-89.4712,998.3,-16.2,-999.0,yes,yes,no,300234062554760,SVP-B,USIABP,NPEO,North
2015-04-20T13:59:31Z,1429538371,2015,14,0,110.583,110.583,88.6156,-89.2132,998.2,-16.4,-999.0,yes,yes,no,300234062554760,SVP-B,USIABP,NPEO,North
2015-04-20T15:00:00Z,1429542000,2015,15,0,110.625,110.625,88.615,-88.9584,997.9,-16.5,-999.0,yes,yes,no,300234062554760,SVP-B,USIABP,NPEO,North
2015-04-20T16:00:28Z,1429545629,2015,16,0,110.667,110.667,88.6142,-88.71,997.7,-16.5,-999.0,yes,yes,no,300234062554760,SVP-B,USIABP,NPEO,North
2015-04-20T16:59:31Z,1429549171,2015,17,0,110.708,110.708,88.6134,-88.4632,997.6,-16.5,-999.0,yes,yes,no,300234062554760,SVP-B,USIABP,NPEO,North
2015-04-20T18:00:00Z,1429552800,2015,18,0,110.75,110.75,88.613,-88.2234,997.4,-16.3,-999.0,yes,yes,no,300234062554760,SVP-B,USIABP,NPEO,North
2015-04-20T19:00:28Z,1429556429,2015,19,0,110.792,110.792,88.6128,-87.9992,997.3,-16.0,-999.0,yes,yes,no,300234062554760,SVP-B,USIABP,NPEO,North
2015-04-20T19:59:31Z,1429559971,2015,20,0,110.833,110.833,88.6128,-87.7912,997.3,-15.8,-999.0,yes,yes,no,300234062554760,SVP-B,USIABP,NPEO,North
2015-04-20T21:00:00Z,1429563600,2015,21,0,110.875,110.875,88.6128,-87.594,997.3,-15.4,-999.0,yes,yes,no,300234062554760,SVP-B,USIABP,NPEO,North
2015-04-20T22:00:28Z,1429567229,2015,22,0,110.917,110.917,88.6128,-87.4124,997.2,-15.0,-999.0,yes,yes,no,300234062554760,SVP-B,USIABP,NPEO,North
2015-04-20T22:59:31Z,1429570771,2015,23,0,110.958,110.958,88.6124,-87.2456,997.4,-14.6,-999.0,yes,yes,no,300234062554760,SVP-B,USIABP,NPEO,North
2015-04-21T00:00:00Z,1429574400,2015,0,0,111.0,111.0,88.6122,-87.099,997.7,-14.1,-999.0,yes,yes,no,300234062554760,SVP-B,USIABP,NPEO,North
2015-04-21T01:00:28Z,1429578029,2015,1,0,111.042,111.042,88.6118,-86.9784,998.8,-14.5,-999.0,yes,yes,no,300234062554760,SVP-B,USIABP,NPEO,North
2015-04-21T01:59:31Z,1429581571,2015,2,0,111.083,111.083,88.6112,-86.8864,999.6,-14.9,-999.0,yes,yes,no,300234062554760,SVP-B,USIABP,NPEO,North
2015-04-21T03:00:00Z,1429585200,2015,3,0,111.125,111.125,88.6096,-86.8112,1000.5,-15.1,-999.0,yes,yes,no,300234062554760,SVP-B,USIABP,NPEO,North
2015-04-21T04:00:28Z,1429588829,2015,4,0,111.167,111.167,88.6072,-86.7528,1001.6,-15.7,-999.0,yes,yes,no,300234062554760,SVP-B,USIABP,NPEO,North
2015-04-21T04:59:31Z,1429592371,2015,5,0,111.208,111.208,88.6048,-86.7032,1002.2,-16.1,-999.0,yes,yes,no,300234062554760,SVP-B,USIABP,NPEO,North
2015-04-21T06:00:00Z,1429596000,2015,6,0,111.25,111.25,88.6026,-86.6456,1003.1,-16.4,-999.0,yes,yes,no,300234062554760,SVP-B,USIABP,NPEO,North
2015-04-21T07:00:28Z,1429599629,2015,7,0,111.292,111.292,88.6002,-86.583,1004.1,-16.7,-999.0,yes,yes,no,300234062554760,SVP-B,USIABP,NPEO,North
2015-04-21T07:59:31Z,1429603171,2015,8,0,111.333,111.333,88.598,-86.5196,1005.0,-17.2,-999.0,yes,yes,no,300234062554760,SVP-B,USIABP,NPEO,North
2015-04-21T09:00:00Z,1429606800,2015,9,0,111.375,111.375,88.5954,-86.4378,1005.7,-17.5,-999.0,yes,yes,no,300234062554760,SVP-B,USIABP,NPEO,North